When you browse on this site, cookies collect data to enhance your experience and personalize the content and advertising you see.
Visit our Privacy Policy to learn more. By continuing to use the site, you agree to this use of cookies and data.
  • Em Portugal
  • Lista de países
  • Para 7 dias
  • Temperatura da água
  • Mapa do tempo
  • Widgets de tempo
  • user-avatar
    Iniciar Sessão

    Previsão horária em MoncadaiReixac

    Hoje, 14 Dezembro, Sábado

    Tempo Temperatura Precipitação Vento Pressão Humidade
    00:00 +13°C° 0 mm 4 m/s 748 mmHg 72%
    01:00 +13°C° 0 mm 4 m/s 748 mmHg 73%
    02:00 +12°C° 0 mm 4 m/s 748 mmHg 74%
    03:00 +12°C° 0 mm 4 m/s 748 mmHg 74%
    04:00 +12°C° 0 mm 4 m/s 748 mmHg 75%
    05:00 +11°C° 0 mm 4 m/s 749 mmHg 75%
    06:00 +11°C° 0 mm 4 m/s 749 mmHg 76%
    07:00 +12°C° 0 mm 3 m/s 750 mmHg 73%
    08:00 +12°C° 0 mm 3 m/s 751 mmHg 70%
    09:00 +13°C° 0 mm 3 m/s 751 mmHg 67%
    10:00 +14°C° 0 mm 3 m/s 751 mmHg 63%
    11:00 +16°C° 0 mm 2 m/s 751 mmHg 60%
    12:00 +17°C° 0 mm 2 m/s 751 mmHg 56%
    13:00 +17°C° 0 mm 2 m/s 751 mmHg 57%
    14:00 +17°C° 0 mm 2 m/s 751 mmHg 57%
    15:00 +17°C° 0 mm 2 m/s 751 mmHg 58%
    16:00 +16°C° 0 mm 2 m/s 751 mmHg 62%
    17:00 +15°C° 0 mm 2 m/s 752 mmHg 65%
    18:00 +14°C° 0 mm 2 m/s 752 mmHg 69%
    19:00 +13°C° 0 mm 2 m/s 752 mmHg 71%
    20:00 +13°C° 0 mm 2 m/s 753 mmHg 72%
    21:00 +13°C° 0 mm 2 m/s 753 mmHg 74%
    22:00 +12°C° 0 mm 2 m/s 753 mmHg 74%
    23:00 +11°C° 0 mm 3 m/s 752 mmHg 75%

    Amanhã, 15 Dezembro, Domingo

    Tempo Temperatura Precipitação Vento Pressão Humidade
    00:00 +11°C° 0 mm 3 m/s 752 mmHg 75%
    01:00 +10°C° 0 mm 4 m/s 752 mmHg 76%
    02:00 +10°C° 0 mm 4 m/s 752 mmHg 76%
    03:00 +9°C° 0 mm 5 m/s 751 mmHg 77%
    04:00 +10°C° 0 mm 4 m/s 751 mmHg 77%
    05:00 +10°C° 0 mm 4 m/s 751 mmHg 77%
    06:00 +8°C° 0 mm 4 m/s 751 mmHg 78%
    07:00 +10°C° 0 mm 4 m/s 752 mmHg 75%
    08:00 +11°C° 0 mm 3 m/s 752 mmHg 72%
    09:00 +11°C° 0 mm 3 m/s 752 mmHg 70%
    10:00 +13°C° 0 mm 3 m/s 752 mmHg 65%
    11:00 +14°C° 0 mm 3 m/s 752 mmHg 60%
    12:00 +16°C° 0 mm 3 m/s 752 mmHg 54%
    13:00 +16°C° 0 mm 3 m/s 751 mmHg 55%
    14:00 +16°C° 0 mm 3 m/s 751 mmHg 55%
    15:00 +17°C° 0 mm 3 m/s 751 mmHg 55%
    16:00 +14°C° 0 mm 3 m/s 751 mmHg 60%
    17:00 +13°C° 0 mm 3 m/s 751 mmHg 65%
    18:00 +13°C° 0 mm 2 m/s 751 mmHg 70%
    19:00 +13°C° 0 mm 2 m/s 751 mmHg 71%
    20:00 +12°C° 0 mm 2 m/s 751 mmHg 73%
    21:00 +12°C° 0 mm 2 m/s 751 mmHg 75%
    22:00 +12°C° 0 mm 2 m/s 751 mmHg 75%
    23:00 +12°C° 0 mm 2 m/s 751 mmHg 76%

    Depois de amanhã, 16 Dezembro, Segunda-feira

    Tempo Temperatura Precipitação Vento Pressão Humidade
    00:00 +11°C° 0 mm 1 m/s 751 mmHg 76%
    01:00 +11°C° 0 mm 1 m/s 750 mmHg 77%
    02:00 +11°C° 0 mm 1 m/s 750 mmHg 77%
    03:00 +11°C° 0 mm 1 m/s 750 mmHg 78%
    04:00 +11°C° 0 mm 1 m/s 749 mmHg 80%
    05:00 +11°C° 0 mm 1 m/s 749 mmHg 82%
    06:00 +12°C° 0 mm 1 m/s 749 mmHg 83%
    07:00 +12°C° 0 mm 1 m/s 749 mmHg 85%
    08:00 +13°C° 0 mm 2 m/s 749 mmHg 87%
    09:00 +13°C° 0 mm 2 m/s 748 mmHg 88%
    10:00 +14°C° 0 mm 2 m/s 748 mmHg 86%
    11:00 +14°C° 0 mm 3 m/s 747 mmHg 84%
    12:00 +14°C° 0 mm 3 m/s 747 mmHg 81%
    13:00 +16°C° 0 mm 3 m/s 746 mmHg 83%
    14:00 +16°C° 0 mm 3 m/s 746 mmHg 85%
    15:00 +16°C° 0 mm 3 m/s 745 mmHg 87%
    16:00 +14°C° 0 mm 3 m/s 745 mmHg 89%
    17:00 +14°C° 0 mm 3 m/s 745 mmHg 92%
    18:00 +14°C° 0 mm 2 m/s 745 mmHg 94%
    19:00 +14°C° 0 mm 2 m/s 745 mmHg 92%
    20:00 +13°C° 0 mm 2 m/s 745 mmHg 91%
    21:00 +13°C° 0 mm 2 m/s 745 mmHg 89%
    22:00 +13°C° 0 mm 2 m/s 745 mmHg 89%
    23:00 +13°C° 0 mm 2 m/s 745 mmHg 89%

    17 Dezembro, Terça-feira

    Tempo Temperatura Precipitação Vento Pressão Humidade
    00:00 +13°C° 0 mm 2 m/s 744 mmHg 88%
    01:00 +13°C° 0 mm 1 m/s 744 mmHg 88%
    02:00 +13°C° 0 mm 1 m/s 744 mmHg 88%
    03:00 +12°C° 0 mm 1 m/s 744 mmHg 88%
    04:00 +12°C° 0 mm 1 m/s 744 mmHg 88%
    05:00 +12°C° 0 mm 1 m/s 744 mmHg 88%
    06:00 +12°C° 0 mm 1 m/s 744 mmHg 89%
    07:00 +13°C° 0.1 mm 1 m/s 744 mmHg 87%
    08:00 +13°C° 0.1 mm 1 m/s 744 mmHg 84%
    09:00 +14°C° 0.1 mm 1 m/s 745 mmHg 82%
    10:00 +14°C° 0.3 mm 1 m/s 745 mmHg 77%
    11:00 +15°C° 0.3 mm 1 m/s 745 mmHg 73%
    12:00 +16°C° 0.3 mm 2 m/s 745 mmHg 68%
    13:00 +16°C° 0.2 mm 2 m/s 746 mmHg 69%
    14:00 +15°C° 0.2 mm 2 m/s 746 mmHg 69%
    15:00 +15°C° 0.2 mm 2 m/s 746 mmHg 69%
    16:00 +15°C° 0.1 mm 2 m/s 746 mmHg 72%
    17:00 +14°C° 0.1 mm 2 m/s 747 mmHg 75%
    18:00 +13°C° 0.1 mm 2 m/s 747 mmHg 78%
    19:00 +13°C° 0 mm 1 m/s 748 mmHg 79%
    20:00 +13°C° 0 mm 1 m/s 748 mmHg 80%
    21:00 +13°C° 0 mm 1 m/s 749 mmHg 81%
    22:00 +12°C° 0.1 mm 1 m/s 749 mmHg 82%
    23:00 +12°C° 0.1 mm 2 m/s 749 mmHg 82%

    18 Dezembro, Quarta-feira

    Tempo Temperatura Precipitação Vento Pressão Humidade
    00:00 +12°C° 0.1 mm 2 m/s 749 mmHg 83%
    01:00 +12°C° 0.2 mm 2 m/s 749 mmHg 83%
    02:00 +12°C° 0.2 mm 2 m/s 749 mmHg 82%
    03:00 +12°C° 0.2 mm 2 m/s 749 mmHg 82%
    04:00 +12°C° 0.1 mm 2 m/s 749 mmHg 81%
    05:00 +12°C° 0.1 mm 2 m/s 750 mmHg 80%
    06:00 +10°C° 0.1 mm 2 m/s 750 mmHg 79%
    07:00 +10°C° 0 mm 2 m/s 750 mmHg 77%
    08:00 +10°C° 0 mm 2 m/s 750 mmHg 76%
    09:00 +10°C° 0 mm 2 m/s 751 mmHg 74%
    10:00 +12°C° 0 mm 2 m/s 751 mmHg 69%
    11:00 +12°C° 0 mm 3 m/s 750 mmHg 63%
    12:00 +13°C° 0 mm 3 m/s 750 mmHg 58%
    13:00 +13°C° 0 mm 3 m/s 750 mmHg 57%
    14:00 +13°C° 0 mm 3 m/s 750 mmHg 56%
    15:00 +13°C° 0 mm 3 m/s 750 mmHg 55%
    16:00 +12°C° 0 mm 3 m/s 750 mmHg 58%
    17:00 +11°C° 0 mm 3 m/s 750 mmHg 62%
    18:00 +10°C° 0 mm 3 m/s 750 mmHg 65%
    19:00 +9°C° 0 mm 3 m/s 750 mmHg 66%
    20:00 +9°C° 0 mm 3 m/s 751 mmHg 67%
    21:00 +9°C° 0 mm 2 m/s 751 mmHg 67%
    22:00 +9°C° 0 mm 3 m/s 751 mmHg 67%
    23:00 +9°C° 0 mm 3 m/s 750 mmHg 67%

    19 Dezembro, Quinta-feira

    Tempo Temperatura Precipitação Vento Pressão Humidade
    00:00 +9°C° 0 mm 3 m/s 750 mmHg 67%
    01:00 +9°C° 0 mm 3 m/s 750 mmHg 66%
    02:00 +9°C° 0 mm 2 m/s 749 mmHg 66%
    03:00 +9°C° 0 mm 2 m/s 749 mmHg 65%
    04:00 +9°C° 0.1 mm 3 m/s 748 mmHg 66%
    05:00 +9°C° 0.1 mm 3 m/s 748 mmHg 68%
    06:00 +8°C° 0.1 mm 4 m/s 748 mmHg 69%
    07:00 +10°C° 0.2 mm 4 m/s 748 mmHg 71%
    08:00 +10°C° 0.2 mm 4 m/s 747 mmHg 74%
    09:00 +9°C° 0.2 mm 5 m/s 747 mmHg 76%
    10:00 +10°C° 0 mm 6 m/s 747 mmHg 70%
    11:00 +11°C° 0 mm 7 m/s 747 mmHg 64%
    12:00 +13°C° 0 mm 8 m/s 747 mmHg 58%
    13:00 +12°C° 0 mm 8 m/s 747 mmHg 58%
    14:00 +12°C° 0 mm 8 m/s 747 mmHg 58%
    15:00 +12°C° 0 mm 8 m/s 746 mmHg 58%
    16:00 +11°C° 0 mm 7 m/s 747 mmHg 60%
    17:00 +11°C° 0 mm 6 m/s 747 mmHg 62%
    18:00 +11°C° 0 mm 4 m/s 747 mmHg 64%
    19:00 +11°C° 0 mm 4 m/s 747 mmHg 65%
    20:00 +11°C° 0 mm 3 m/s 747 mmHg 66%
    21:00 +10°C° 0 mm 3 m/s 746 mmHg 67%
    22:00 +11°C° 0 mm 4 m/s 746 mmHg 69%
    23:00 +10°C° 0 mm 5 m/s 745 mmHg 71%
    Mostrar mais